Stündliche Wetter Bolshie Meteski

Heute, 16 Juni, Mittwoch

Zeit Temperatur Niederschläge Wind Luftdruck Luftfeuchtigkeit
00:00 +20°C° 0.1 mm 3 m/S 749 mmHg 80%
01:00 +20°C° 0.1 mm 3 m/S 749 mmHg 83%
02:00 +19°C° 0.1 mm 3 m/S 748 mmHg 86%
03:00 +19°C° 0.1 mm 3 m/S 748 mmHg 90%
04:00 +20°C° 0 mm 3 m/S 748 mmHg 88%
05:00 +21°C° 0 mm 4 m/S 748 mmHg 86%
06:00 +21°C° 0 mm 4 m/S 747 mmHg 85%
07:00 +23°C° 0 mm 4 m/S 747 mmHg 77%
08:00 +25°C° 0 mm 4 m/S 747 mmHg 69%
09:00 +27°C° 0 mm 4 m/S 746 mmHg 61%
10:00 +28°C° 0 mm 4 m/S 746 mmHg 59%
11:00 +28°C° 0 mm 5 m/S 746 mmHg 57%
12:00 +29°C° 0 mm 5 m/S 745 mmHg 55%
13:00 +29°C° 0 mm 5 m/S 745 mmHg 56%
14:00 +29°C° 0 mm 5 m/S 745 mmHg 57%
15:00 +29°C° 0 mm 4 m/S 745 mmHg 58%
16:00 +28°C° 0.1 mm 4 m/S 744 mmHg 64%
17:00 +27°C° 0.1 mm 3 m/S 744 mmHg 70%
18:00 +26°C° 0.1 mm 3 m/S 744 mmHg 76%
19:00 +25°C° 1.2 mm 4 m/S 744 mmHg 81%
20:00 +22°C° 1.2 mm 4 m/S 744 mmHg 86%
21:00 +20°C° 1.2 mm 5 m/S 744 mmHg 91%
22:00 +19°C° 0.3 mm 5 m/S 745 mmHg 92%
23:00 +17°C° 0.3 mm 5 m/S 746 mmHg 94%

Morgen, 17 Juni, Donnerstag

Zeit Temperatur Niederschläge Wind Luftdruck Luftfeuchtigkeit
00:00 +16°C° 0.3 mm 6 m/S 746 mmHg 95%
01:00 +15°C° 0 mm 6 m/S 747 mmHg 94%
02:00 +15°C° 0 mm 6 m/S 748 mmHg 94%
03:00 +14°C° 0 mm 6 m/S 748 mmHg 93%
04:00 +15°C° 0 mm 5 m/S 749 mmHg 90%
05:00 +15°C° 0 mm 5 m/S 750 mmHg 86%
06:00 +15°C° 0 mm 5 m/S 750 mmHg 83%
07:00 +16°C° 0 mm 5 m/S 751 mmHg 75%
08:00 +17°C° 0 mm 6 m/S 751 mmHg 67%
09:00 +19°C° 0 mm 6 m/S 751 mmHg 59%
10:00 +20°C° 0 mm 6 m/S 752 mmHg 55%
11:00 +21°C° 0 mm 6 m/S 752 mmHg 51%
12:00 +21°C° 0 mm 7 m/S 752 mmHg 47%
13:00 +21°C° 0 mm 6 m/S 752 mmHg 48%
14:00 +21°C° 0 mm 6 m/S 753 mmHg 49%
15:00 +21°C° 0 mm 6 m/S 753 mmHg 50%
16:00 +21°C° 0 mm 5 m/S 753 mmHg 54%
17:00 +20°C° 0 mm 4 m/S 753 mmHg 59%
18:00 +20°C° 0 mm 3 m/S 753 mmHg 64%
19:00 +19°C° 0 mm 3 m/S 754 mmHg 64%
20:00 +18°C° 0 mm 2 m/S 754 mmHg 64%
21:00 +17°C° 0 mm 2 m/S 754 mmHg 64%
22:00 +17°C° 0 mm 3 m/S 755 mmHg 63%
23:00 +17°C° 0 mm 3 m/S 755 mmHg 62%

übermorgen, 18 Juni, Freitag

Zeit Temperatur Niederschläge Wind Luftdruck Luftfeuchtigkeit
00:00 +17°C° 0 mm 4 m/S 755 mmHg 61%
01:00 +14°C° 0 mm 4 m/S 756 mmHg 64%
02:00 +13°C° 0 mm 3 m/S 756 mmHg 66%
03:00 +11°C° 0 mm 3 m/S 756 mmHg 69%
04:00 +12°C° 0 mm 3 m/S 757 mmHg 69%
05:00 +13°C° 0 mm 4 m/S 757 mmHg 69%
06:00 +13°C° 0 mm 4 m/S 758 mmHg 68%
07:00 +15°C° 0 mm 4 m/S 758 mmHg 62%
08:00 +17°C° 0 mm 4 m/S 758 mmHg 55%
09:00 +18°C° 0 mm 4 m/S 759 mmHg 48%
10:00 +19°C° 0 mm 4 m/S 759 mmHg 46%
11:00 +20°C° 0 mm 4 m/S 759 mmHg 44%
12:00 +21°C° 0 mm 4 m/S 759 mmHg 42%
13:00 +21°C° 0 mm 4 m/S 759 mmHg 43%
14:00 +21°C° 0 mm 4 m/S 759 mmHg 43%
15:00 +22°C° 0 mm 5 m/S 759 mmHg 44%
16:00 +21°C° 0 mm 4 m/S 759 mmHg 51%
17:00 +20°C° 0 mm 3 m/S 759 mmHg 58%
18:00 +20°C° 0 mm 2 m/S 759 mmHg 65%
19:00 +18°C° 0 mm 2 m/S 759 mmHg 66%
20:00 +17°C° 0 mm 2 m/S 759 mmHg 67%
21:00 +16°C° 0 mm 1 m/S 759 mmHg 68%
22:00 +15°C° 0 mm 1 m/S 759 mmHg 68%
23:00 +15°C° 0 mm 1 m/S 759 mmHg 67%

19 Juni, Samstag

Zeit Temperatur Niederschläge Wind Luftdruck Luftfeuchtigkeit
00:00 +15°C° 0 mm 1 m/S 759 mmHg 67%
01:00 +14°C° 0 mm 2 m/S 759 mmHg 68%
02:00 +14°C° 0 mm 2 m/S 759 mmHg 68%
03:00 +14°C° 0 mm 2 m/S 759 mmHg 69%
04:00 +14°C° 0 mm 3 m/S 759 mmHg 71%
05:00 +16°C° 0 mm 3 m/S 759 mmHg 73%
06:00 +17°C° 0 mm 3 m/S 759 mmHg 75%
07:00 +19°C° 0 mm 4 m/S 759 mmHg 72%
08:00 +21°C° 0 mm 4 m/S 759 mmHg 69%
09:00 +23°C° 0 mm 5 m/S 759 mmHg 65%
10:00 +24°C° 0 mm 6 m/S 758 mmHg 63%
11:00 +26°C° 0 mm 6 m/S 758 mmHg 60%
12:00 +27°C° 0 mm 6 m/S 757 mmHg 57%
13:00 +27°C° 0 mm 6 m/S 757 mmHg 58%
14:00 +28°C° 0 mm 6 m/S 757 mmHg 59%
15:00 +28°C° 0 mm 6 m/S 756 mmHg 60%
16:00 +27°C° 0 mm 6 m/S 756 mmHg 64%
17:00 +27°C° 0 mm 6 m/S 756 mmHg 68%
18:00 +26°C° 0 mm 6 m/S 756 mmHg 71%
19:00 +24°C° 0 mm 6 m/S 756 mmHg 75%
20:00 +23°C° 0 mm 5 m/S 756 mmHg 79%
21:00 +21°C° 0 mm 5 m/S 756 mmHg 83%
22:00 +21°C° 0 mm 5 m/S 756 mmHg 85%
23:00 +20°C° 0 mm 5 m/S 756 mmHg 86%

20 Juni, Sonntag

Zeit Temperatur Niederschläge Wind Luftdruck Luftfeuchtigkeit
00:00 +20°C° 0 mm 4 m/S 756 mmHg 87%
01:00 +19°C° 0 mm 4 m/S 756 mmHg 89%
02:00 +18°C° 0 mm 4 m/S 756 mmHg 91%
03:00 +18°C° 0 mm 3 m/S 756 mmHg 92%
04:00 +19°C° 0 mm 3 m/S 756 mmHg 88%
05:00 +20°C° 0 mm 3 m/S 757 mmHg 84%
06:00 +21°C° 0 mm 3 m/S 757 mmHg 79%
07:00 +22°C° 0 mm 3 m/S 757 mmHg 75%
08:00 +25°C° 0 mm 3 m/S 757 mmHg 70%
09:00 +26°C° 0 mm 3 m/S 757 mmHg 66%
10:00 +27°C° 0 mm 3 m/S 757 mmHg 63%
11:00 +28°C° 0 mm 3 m/S 757 mmHg 61%
12:00 +28°C° 0 mm 4 m/S 757 mmHg 59%
13:00 +28°C° 0.2 mm 3 m/S 757 mmHg 59%
14:00 +28°C° 0.2 mm 3 m/S 757 mmHg 60%
15:00 +28°C° 0.2 mm 3 m/S 757 mmHg 61%
16:00 +27°C° 0 mm 3 m/S 757 mmHg 64%
17:00 +27°C° 0 mm 2 m/S 757 mmHg 67%
18:00 +26°C° 0 mm 2 m/S 757 mmHg 69%
19:00 +25°C° 0 mm 2 m/S 757 mmHg 72%
20:00 +23°C° 0 mm 2 m/S 757 mmHg 74%
21:00 +21°C° 0 mm 1 m/S 757 mmHg 76%
22:00 +21°C° 0.2 mm 1 m/S 757 mmHg 79%
23:00 +20°C° 0.2 mm 1 m/S 757 mmHg 82%

21 Juni, Montag

Zeit Temperatur Niederschläge Wind Luftdruck Luftfeuchtigkeit
00:00 +20°C° 0.2 mm 1 m/S 756 mmHg 85%
01:00 +19°C° 0.2 mm 2 m/S 756 mmHg 88%
02:00 +19°C° 0.2 mm 2 m/S 756 mmHg 90%
03:00 +19°C° 0.2 mm 2 m/S 756 mmHg 92%
04:00 +20°C° 0.1 mm 2 m/S 756 mmHg 90%
05:00 +20°C° 0.1 mm 2 m/S 756 mmHg 89%
06:00 +21°C° 0.1 mm 2 m/S 756 mmHg 87%
07:00 +24°C° 0 mm 3 m/S 756 mmHg 81%
08:00 +25°C° 0 mm 3 m/S 755 mmHg 74%
09:00 +27°C° 0 mm 4 m/S 755 mmHg 68%
10:00 +28°C° 0.1 mm 4 m/S 755 mmHg 62%
11:00 +29°C° 0.1 mm 4 m/S 755 mmHg 57%
12:00 +30°C° 0.1 mm 4 m/S 754 mmHg 51%
13:00 +29°C° 0 mm 4 m/S 754 mmHg 56%
14:00 +28°C° 0 mm 4 m/S 754 mmHg 60%
15:00 +27°C° 0 mm 3 m/S 754 mmHg 65%
16:00 +27°C° 0.2 mm 3 m/S 753 mmHg 68%
17:00 +26°C° 0.2 mm 3 m/S 753 mmHg 71%
18:00 +26°C° 0.2 mm 2 m/S 753 mmHg 74%
19:00 +25°C° 0.2 mm 3 m/S 753 mmHg 78%
20:00 +24°C° 0.2 mm 3 m/S 752 mmHg 82%
21:00 +22°C° 0.2 mm 3 m/S 752 mmHg 86%
22:00 +21°C° 0 mm 3 m/S 752 mmHg 86%
23:00 +21°C° 0 mm 3 m/S 752 mmHg 86%
Mehr zeigen

Wir brauchen deine Erlaubnis

Meteoprog und unser Service Anbieter werden persönliche Daten aufbewahren, so wie Cookies, Geräte Bezeichnung oder ähnliche Technologien von deinem Gerät und Prozess, so wie Persönliche Daten Inhalte und Werbungen, genauso wie social Media und den Verkehr zu analysieren.

  • Aufbewahrung und/oder Zugang zu deiner Geräte Informationen.

    Cookies, Geräte Bezeichnung oder andere Informationen, können aufbewahrt oder Zugang zu deinem Gerät erhalten, für den Grund, der oben angegeben wird.

  • Personalisierte Werbung und Inhalte, Messungen, Einblick in das Publikum und Produkt Entwicklung.

    Werbungen und Inhalte können personalisiert werden, basierend auf ein Profil. Mehr Daten können besser personalisierte Werbungen und Inhalte hinzufügen. Werbung und Inhalte können gezeigt und gemessen werden. Einblicke über das Publikum, welche die Werbung gesehen haben und den Inhalt, können abgeleitet werden. So wie Daten können genutzt werden, um es zu verbessern oder die Benutzer Erfahrung zu verbessern das System und die Software.

Wenn du “Ich stimme zu” klickst, erlaubst du uns, die Cookies zu benutzen die Geräte Bezeichnung, den Web oder ähnliche Technologien zu benutzen. Deine Settings, können in deinem Gerät bei deinem Browser geändert werden.

Für den bestimmten Zweck, berechtigten Interessen beruhen darauf, mehr als auf den Inhalt. Du kannst mehr darüber in unseren Privaten und Cookie Politik lesen.